This is the latest recevied weather packets stored in our database for station/object SP1BMW-13. If no packets are shown the sender has not sent any weather packets the latest 10 day(s).
| Time | Temp. | Humidity | Pressure | Rain* | Wind** | Luminosity | Snow |
|---|---|---|---|---|---|---|---|
| 1788008252 | 24.44° C | 50% | 1009.6 hPa | 0 mm | 0.45 m/s, 310° | 618 W/m² | - |
| 1788008192 | 24.44° C | 48% | 1009.5 hPa | 0 mm | 1.79 m/s, 312° | 507 W/m² | - |
| 1788008133 | 24.44° C | 48% | 1009.5 hPa | 0 mm | 1.79 m/s, 321° | 338 W/m² | - |
| 1788008073 | 24.44° C | 49% | 1009.5 hPa | 0 mm | 0.89 m/s, 271° | 406 W/m² | - |
| 1788008013 | 24.44° C | 49% | 1009.4 hPa | 0 mm | 1.79 m/s, 108° | 494 W/m² | - |
| 1788007953 | 24.44° C | 49% | 1009.5 hPa | 0 mm | 1.79 m/s, 248° | 596 W/m² | - |
| 1788007894 | 24.44° C | 48% | 1009.5 hPa | 0 mm | 1.34 m/s, 301° | 620 W/m² | - |
| 1788007833 | 24.44° C | 48% | 1009.5 hPa | 0 mm | 1.79 m/s, 284° | 676 W/m² | - |
| 1788007777 | 24.44° C | 48% | 1009.5 hPa | 0 mm | 2.24 m/s, 245° | 577 W/m² | - |
| 1788007713 | 24.44° C | 49% | 1009.6 hPa | 0 mm | 2.24 m/s, 312° | 461 W/m² | - |
| 1788007653 | 24.44° C | 50% | 1009.5 hPa | 0 mm | 0.89 m/s, 287° | 417 W/m² | - |
| 1788007594 | 24.44° C | 48% | 1009.5 hPa | 0 mm | 1.34 m/s, 246° | 659 W/m² | - |
| 1788007532 | 24.44° C | 48% | 1009.6 hPa | 0 mm | 0.89 m/s, 246° | 197 W/m² | - |
| 1788007473 | 24.44° C | 49% | 1009.5 hPa | 0 mm | 1.34 m/s, 335° | 232 W/m² | - |
| 1788007412 | 24.44° C | 50% | 1009.6 hPa | 0 mm | 1.34 m/s, 312° | 352 W/m² | - |
| 1788007354 | 24.44° C | 50% | 1009.6 hPa | 0 mm | 1.79 m/s, 309° | 345 W/m² | - |
| 1788007292 | 24.44° C | 50% | 1009.5 hPa | 0 mm | 2.24 m/s, 231° | 706 W/m² | - |
| 1788007232 | 23.89° C | 51% | 1009.6 hPa | 0 mm | 2.24 m/s, 259° | 632 W/m² | - |
| 1788007174 | 23.89° C | 52% | 1009.4 hPa | 0 mm | 0.89 m/s, 277° | 580 W/m² | - |
| 1788007112 | 23.89° C | 53% | 1009.5 hPa | 0 mm | 0.45 m/s, 190° | 696 W/m² | - |
| 1788007053 | 23.89° C | 51% | 1009.4 hPa | 0 mm | 1.34 m/s, 124° | 663 W/m² | - |
| 1788006992 | 23.89° C | 51% | 1009.4 hPa | 0 mm | 1.34 m/s, 336° | 513 W/m² | - |
| 1788006932 | 23.89° C | 52% | 1009.4 hPa | 0 mm | 0.89 m/s, 232° | 170 W/m² | - |
| 1788006872 | 23.89° C | 52% | 1009.7 hPa | 0 mm | 1.34 m/s, 251° | 145 W/m² | - |
| 1788006812 | 23.89° C | 52% | 1009.6 hPa | 0 mm | 1.34 m/s, 138° | 143 W/m² | - |
* Rain latest hour (hover to see other rain measurements)
** Current wind speed in m/s (hover to see current wind gust speed)